Location: Andershausen
(51.8462°N, 9.8595°E)
Time: 02:02:10
(UTC+00:00)

Meteor 2-1 Rocket - Pass Details

Date: 18 November 2025
Orbit: 822 x 912 km, 81.3° (Epoch: 15 December)

Event Time Altitude Azimuth Distance (km) Brightness Sun altitude
Rises 17:44:17 0° 177° (S) 3,509 7.5 -21.0°
Reaches altitude 10° 17:46:45 10° 174° (S) 2,581 6.7 -21.4°
Maximum altitude 17:52:32 59° 96° (E) 1,045 4.3 -22.3°
Enters shadow 17:57:37 14° 20° (NNE) 2,329 6.3 -23.1°
